Find Starlink 2358

NORAD ID: 47898 Int'l Des: 2021-021 Owner: SPXS Country: US Constellation: starlink operational
LEOCIRCULAR

Live Position

Loading 3D Globe...

About Starlink 2358

Description loading...

Upcoming Passes

Passes for default location (London). Set your location on the main map for personalized predictions.

Altitude History

Loading altitude history...

Two-Line Element Set

1 47898U 21021AQ 26105.24845075 .00001788 00000-0 69351-4 0 9993
2 47898 53.1607 98.2341 0001555 92.6275 267.4905 15.31714412281793
Epoch: Apr 15, 2026 • Age: 7 hours

Current Status

Altitude 471.3 km
Velocity 7.63 km/s
Sub-Earth Point 1.81°N, 123.17°W
Launch Date Mar 14, 2021
Age 5 years
Type internet

Technical Details

Classification Payload
Mass 260.00 kg
Dry Mass 248.00 kg
Total Mass 260.00 kg
Length 0.20 m
Diameter 2.80 m
Span 9.00 m
Shape Box + pan
Manufacturer SPXS
Bus Type Starlink
Phase Status In Orbit
Owner/State SPXS/US

Most Searched